Retour au catalogue

AIRSAT-06

ActifScienceSSO
NORAD 63297·PAYLOAD·🇨🇳 China
Ce nom de satellite n'a pas encore été confirmé par des sources officielles.

Lancé Mar 17, 2025 depuis Jiuquan Satellite Launch Center

Loading…

Prochains Passages (prochaines 24 heures)

TLE

FraisSource: Space-Track

Époque: Sep 14, 2026, 15:41 UTC

1 63297U 25055G   26257.65367830  .00017592  00000-0  64594-3 0  9999
2 63297  97.6595  43.0031 0007555 195.5761 164.5246 15.27978034 82887

Suivez AIRSAT-06 en temps réel avec AllMySat

Download on the App Store